Location: ???? ????
(41.4149°N, 22.8816°E)
Time: 15:00:15
(UTC+00:00)

Lacrosse 5 - Pass Details

Date: 14 July 2020
Orbit: 717 x 720 km, 57.0° (Epoch: 02 August)

Event Time Altitude Azimuth Distance (km) Brightness Sun altitude
Exits shadow 00:10:41 - 282° (WNW) 2,256 4.3 -23.1°
Reaches altitude 10° 00:10:52 10° 283° (WNW) 2,201 4.3 -23.1°
Maximum altitude 00:14:50 23° 335° (NNW) 1,523 3.9 -22.8°
Drops below altitude 10° 00:18:49 10° 27° (NNE) 2,207 5.5 -22.5°
Sets 00:21:42 0° 42° (NE) 3,130 6.5 -22.2°
